Lexington, NE

12:10 PM CDT on July 22, 2017 (GMT -0500)
Kelly

Weather History for KLXN - March, 2014

Change the Weather History Date:

Thursday, March 27, 2014

  Actual Average Record
Temperature  
Mean Temperature 38 °F -  
Max Temperature 47 °F 53 °F 78 °F (1997)
Min Temperature 30 °F 29 °F 14 °F (2016)
Degree Days  
Heating Degree Days 26    
Moisture  
Dew Point 35 °F    
Average Humidity 87    
Maximum Humidity 96    
Minimum Humidity 73    
Precipitation  
Precipitation 0.47 in - - ()
Sea Level Pressure  
Sea Level Pressure 29.55 in    
Wind  
Wind Speed 16 mph (North)    
Max Wind Speed 26 mph    
Max Gust Speed 40 mph    
Visibility 6 miles    
Events Rain , Snow    
Averages and records for this station are not official NWS values.
T = Trace of Precipitation, MM = Missing Value Source: NWS Daily Summary

Daily Weather History Graph

Daily Weather History Graph

Search for Another Location

Airport or City:

Trip Planner

Search our weather history database for the weather conditions in past years. The results will help you decide how hot, cold, wet, or windy it might be!

Date:

Astronomy

Mar. 27, 2014 Rise Set
Actual Time 7:30 AM CDT 7:58 PM CDT
Civil Twilight 7:03 AM CDT 8:26 PM CDT
Nautical Twilight 6:31 AM CDT 8:58 PM CDT
Astronomical Twilight 5:57 AM CDT 9:31 PM CDT
Moon 5:24 AM CDT (3/27) 4:47 PM CDT (3/27)
Length of Visible Light 13h 22m
Length of Day
12h 27m
Waning Crescent, 13% of the Moon is Illuminated
Mar 27
Waning Crescent
Mar 30
New
Apr 7
First Quarter
Apr 15
Full
Apr 22
Last Quarter

Hourly Weather History & Observations

Time (CDT) Temp. Windchill Dew Point Humidity Pressure Visibility Wind Dir Wind Speed Gust Speed Precip Events Conditions
12:15 AM 46.6 °F - 43.3 °F 88% 29.36 in 7.0 mi South 25.3 mph 34.5 mph N/A   Overcast
12:35 AM 46.4 °F 39.2 °F 43.2 °F 88% 29.36 in 5.0 mi South 18.4 mph 26.5 mph N/A Rain Light Rain
12:55 AM 46.4 °F 40.1 °F 43.7 °F 90% 29.37 in 5.0 mi South 15.0 mph - N/A   Overcast
1:15 AM 46.4 °F 40.1 °F 43.9 °F 91% 29.35 in 5.0 mi SSE 15.0 mph - N/A   Overcast
1:35 AM 46.4 °F 39.8 °F 43.9 °F 91% 29.34 in 5.0 mi SSE 16.1 mph - N/A   Overcast
1:55 AM 46.8 °F - 44.1 °F 90% 29.35 in 5.0 mi SSE 4.6 mph - N/A   Overcast
2:15 AM 47.3 °F - 44.2 °F 89% 29.33 in 5.0 mi SE 9.2 mph - N/A   Overcast
2:35 AM 47.3 °F - 44.2 °F 89% 29.34 in 5.0 mi SE 4.6 mph - N/A   Overcast
2:55 AM 47.3 °F - 44.4 °F 90% 29.33 in 5.0 mi ENE 4.6 mph - N/A   Overcast
3:15 AM 46.6 °F - 44.1 °F 91% 29.32 in 5.0 mi NE 8.1 mph - N/A   Overcast
3:35 AM 46.0 °F 41.0 °F 43.9 °F 92% 29.31 in 4.0 mi ENE 10.4 mph - N/A   Overcast
3:55 AM 45.7 °F 39.5 °F 43.9 °F 93% 29.30 in 1.5 mi East 13.8 mph - N/A   Overcast
4:15 AM 45.0 °F 39.3 °F 43.7 °F 95% 29.30 in 1.0 mi ENE 11.5 mph - N/A   Overcast
4:35 AM 44.8 °F 39.9 °F 43.7 °F 96% 29.30 in 1.2 mi ENE 9.2 mph - N/A   Overcast
4:55 AM 44.6 °F 39.2 °F 43.3 °F 95% 29.28 in 1.5 mi East 10.4 mph - N/A   Heavy Drizzle
5:15 AM 44.6 °F 39.7 °F 43.2 °F 95% 29.28 in 2.0 mi East 9.2 mph - N/A   Overcast
5:35 AM 44.6 °F 40.2 °F 43.2 °F 95% 29.30 in 2.5 mi NE 8.1 mph - N/A   Overcast
5:55 AM 44.6 °F 42.2 °F 43.2 °F 95% 29.32 in 2.5 mi North 4.6 mph - N/A   Light Drizzle
6:15 AM 44.6 °F 42.2 °F 43.2 °F 95% 29.32 in 2.5 mi NNE 4.6 mph - N/A   Light Drizzle
6:35 AM 44.2 °F 40.3 °F 43.2 °F 96% 29.32 in 3.0 mi North 6.9 mph - N/A Rain Rain
6:55 AM 44.2 °F 39.7 °F 43.2 °F 96% 29.32 in 3.0 mi North 8.1 mph - 0.01 in   Drizzle
7:15 AM 44.2 °F 37.3 °F 43.2 °F 96% 29.33 in 3.0 mi NNW 15.0 mph - 0.01 in   Drizzle
7:35 AM 41.0 °F 31.6 °F 39.6 °F 95% 29.35 in 5.0 mi North 20.7 mph 28.8 mph 0.03 in Rain Light Rain
7:55 AM 39.0 °F 28.0 °F 36.9 °F 92% 29.38 in 5.0 mi NNW 25.3 mph 31.1 mph 0.08 in Rain Light Rain
8:15 AM 37.0 °F 25.4 °F 34.9 °F 92% 29.40 in 0.5 mi North 25.3 mph 32.2 mph 0.06 in Snow Light Snow
8:35 AM 36.5 °F 25.2 °F 34.2 °F 91% 29.41 in 2.5 mi North 23.0 mph 27.6 mph 0.12 in   Overcast
8:55 AM 36.1 °F 24.7 °F 33.8 °F 91% 29.43 in 4.0 mi NNW 23.0 mph 29.9 mph 0.14 in Rain Light Rain
9:15 AM 35.4 °F 24.6 °F 32.9 °F 91% 29.45 in 3.0 mi NNW 19.6 mph 25.3 mph 0.02 in Snow Light Snow
9:35 AM 33.8 °F 23.2 °F 32.0 °F 93% 29.45 in 0.2 mi NW 17.3 mph 21.9 mph 0.04 in Snow Snow
9:50 AM 33.8 °F 23.2 °F 32.2 °F 94% 29.46 in 0.2 mi NW 17.3 mph - 0.05 in Snow Snow
10:15 AM 33.8 °F 23.2 °F 32.4 °F 94% 29.48 in 0.2 mi NW 17.3 mph - 0.06 in Snow Snow
10:35 AM 33.8 °F 22.8 °F 32.5 °F 95% 29.49 in 0.2 mi NW 18.4 mph 25.3 mph 0.11 in Snow Light Snow
10:50 AM 33.8 °F 22.5 °F 32.2 °F 94% 29.50 in 1.0 mi NW 19.6 mph 23.0 mph 0.16 in Snow Light Snow
11:10 AM 33.8 °F 23.5 °F 32.0 °F 93% 29.52 in 1.2 mi NW 16.1 mph - 0.02 in Snow Light Snow
11:35 AM 33.8 °F 22.8 °F 31.8 °F 92% 29.53 in 2.0 mi NW 18.4 mph - 0.03 in Snow Light Snow
11:55 AM 34.0 °F 22.1 °F 31.6 °F 91% 29.54 in 5.0 mi NW 21.9 mph - 0.03 in Snow Light Snow
12:15 PM 34.5 °F 22.0 °F 31.1 °F 87% 29.55 in 7.0 mi NNW 25.3 mph 32.2 mph N/A Snow Light Snow
12:35 PM 34.9 °F 22.7 °F 31.1 °F 86% 29.56 in 10.0 mi NW 24.2 mph 32.2 mph N/A   Overcast
12:55 PM 35.6 °F 24.8 °F 31.5 °F 85% 29.57 in 10.0 mi NNW 19.6 mph - N/A   Overcast
1:15 PM 36.1 °F 25.0 °F 31.5 °F 83% 29.58 in 10.0 mi NNW 21.9 mph 31.1 mph N/A   Overcast
1:35 PM 36.5 °F 26.0 °F 31.8 °F 83% 29.60 in 10.0 mi NNW 19.6 mph 31.1 mph N/A   Overcast
1:55 PM 37.0 °F 25.4 °F 31.8 °F 81% 29.61 in 10.0 mi NNW 25.3 mph 32.2 mph N/A   Overcast
2:15 PM 36.7 °F 25.4 °F 32.0 °F 83% 29.62 in 10.0 mi NW 23.0 mph 40.3 mph N/A   Overcast
2:35 PM 37.8 °F 26.8 °F 32.0 °F 80% 29.62 in 10.0 mi NNW 23.0 mph 32.2 mph N/A   Overcast
2:55 PM 38.3 °F 27.1 °F 32.5 °F 80% 29.63 in 10.0 mi NNW 25.3 mph 29.9 mph N/A   Overcast
3:15 PM 38.7 °F 28.3 °F 32.5 °F 79% 29.64 in 10.0 mi NNW 21.9 mph 29.9 mph N/A   Overcast
3:35 PM 39.2 °F 28.5 °F 33.3 °F 79% 29.66 in 10.0 mi NNW 24.2 mph 28.8 mph N/A   Overcast
3:55 PM 39.9 °F 30.0 °F 33.4 °F 78% 29.66 in 10.0 mi NNW 21.9 mph 27.6 mph N/A   Mostly Cloudy
4:15 PM 40.5 °F 29.7 °F 33.3 °F 75% 29.66 in 10.0 mi NNW 26.5 mph 32.2 mph N/A   Mostly Cloudy
4:35 PM 40.5 °F 30.7 °F 32.9 °F 74% 29.67 in 10.0 mi NNW 21.9 mph 28.8 mph N/A   Mostly Cloudy
4:55 PM 40.3 °F 30.7 °F 32.5 °F 74% 29.69 in 10.0 mi NNW 20.7 mph 29.9 mph N/A   Overcast
5:15 PM 40.3 °F 30.7 °F 32.5 °F 74% 29.71 in 10.0 mi NNW 20.7 mph - N/A   Overcast
5:30 PM 40.3 °F 30.4 °F 32.4 °F 73% 29.71 in 10.0 mi North 21.9 mph - N/A   Overcast
5:55 PM 40.3 °F 31.9 °F 32.7 °F 74% 29.73 in 10.0 mi North 16.1 mph 19.6 mph N/A   Overcast
6:15 PM 39.6 °F 32.1 °F 32.9 °F 77% 29.74 in 10.0 mi North 12.7 mph - N/A   Overcast
6:35 PM 39.0 °F 29.9 °F 32.2 °F 76% 29.75 in 10.0 mi NNE 17.3 mph - N/A   Overcast
7:15 PM 37.0 °F 29.3 °F 31.5 °F 80% 29.77 in 10.0 mi NNE 11.5 mph - N/A   Mostly Cloudy
7:55 PM 36.0 °F 27.1 °F 30.2 °F 80% 29.80 in 10.0 mi North 13.8 mph - N/A   Overcast
8:15 PM 34.9 °F 25.3 °F 29.8 °F 82% 29.81 in 10.0 mi North 15.0 mph - N/A   Overcast
8:30 PM 34.7 °F 25.9 °F 29.3 °F 81% 29.82 in 10.0 mi NNE 12.7 mph - N/A   Overcast
8:55 PM 34.2 °F 26.8 °F 29.3 °F 82% 29.83 in 10.0 mi North 9.2 mph 17.3 mph N/A   Overcast
9:15 PM 34.0 °F 26.0 °F 29.8 °F 85% 29.84 in 10.0 mi North 10.4 mph - N/A   Overcast
9:35 PM 33.8 °F 26.4 °F 28.8 °F 82% 29.85 in 10.0 mi North 9.2 mph - N/A   Overcast
9:55 PM 33.4 °F 24.8 °F 28.6 °F 82% 29.86 in 10.0 mi NNE 11.5 mph - N/A   Overcast
10:15 PM 33.3 °F 25.7 °F 28.6 °F 83% 29.87 in 10.0 mi NNE 9.2 mph - N/A   Overcast
10:35 PM 32.9 °F 25.3 °F 28.4 °F 84% 29.88 in 10.0 mi North 9.2 mph - N/A   Overcast
10:55 PM 31.8 °F 26.2 °F 27.5 °F 84% 29.90 in 10.0 mi NNW 5.8 mph - N/A   Scattered Clouds
11:15 PM 30.4 °F 25.6 °F 27.0 °F 87% 29.89 in 10.0 mi North 4.6 mph - N/A   Clear
11:35 PM 30.2 °F 26.7 °F 26.6 °F 86% 29.90 in 10.0 mi WNW 3.5 mph - N/A   Clear
11:55 PM 30.0 °F 26.5 °F 27.1 °F 89% 29.90 in 10.0 mi West 3.5 mph - N/A   Clear